Alamosa, CO

9:59 PM MDT on May 22, 2017 (GMT -0600)
San Luis Valley Regional / Bergman Field

Weather History for KALS - July, 2013

Change the Weather History Date:

Thursday, July 4, 2013

  Actual Average Record
Temperature  
Mean Temperature 64 °F 64 °F  
Max Temperature 85 °F 83 °F 93 °F (1989)
Min Temperature 43 °F 45 °F 35 °F (1995)
Degree Days  
Heating Degree Days 1 2  
Month to date heating degree days 7 8  
Since 1 June heating degree days 109 176  
Since 1 July heating degree days 7 8  
Cooling Degree Days 0 1  
Month to date cooling degree days 0 4  
Year to date cooling degree days 16 10  
Since 1 June cooling degree days 16 10  
Growing Degree Days 14 (Base 50)    
Moisture  
Dew Point 40 °F    
Average Humidity 52    
Maximum Humidity 89    
Minimum Humidity 14    
Precipitation  
Precipitation T in 0.03 in 0.72 in (1954)
Month to date precipitation 0.14 0.10  
Year to date precipitation 1.75 2.81  
Snow  
Snow 0.00 in 0.00 in 0.00 in (2002)
Month to date snowfall 0.0 0.0  
Since 1 June snowfall 0.0 0.0  
Since 1 July snowfall 0.0 0.0  
Snow Depth 0.00 in    
Sea Level Pressure  
Sea Level Pressure 29.90 in    
Wind  
Wind Speed 5 mph (SSE)    
Max Wind Speed 17 mph    
Max Gust Speed 23 mph    
Visibility 10 miles    
Events      
T = Trace of Precipitation, MM = Missing Value Source: NWS Daily Summary

Daily Weather History Graph

Daily Weather History Graph

Search for Another Location

Airport or City:

Trip Planner

Search our weather history database for the weather conditions in past years. The results will help you decide how hot, cold, wet, or windy it might be!

Date:

Astronomy

Jul. 04, 2013 Rise Set
Actual Time 5:47 AM MDT 8:27 PM MDT
Civil Twilight 5:17 AM MDT 8:58 PM MDT
Nautical Twilight 4:38 AM MDT 9:37 PM MDT
Astronomical Twilight 3:55 AM MDT 10:20 PM MDT
Moon 3:04 AM MDT (7/4) 5:35 PM MDT (7/4)
Length of Visible Light 15h 41m
Length of Day
14h 39m
Waning Crescent, 11% of the Moon is Illuminated
Jul 4
Waning Crescent
Jul 8
New
Jul 15
First Quarter
Jul 22
Full
Jul 29
Last Quarter

Hourly Weather History & Observations

Time (MDT) Temp. Windchill Dew Point Humidity Pressure Visibility Wind Dir Wind Speed Gust Speed Precip Events Conditions
12:52 AM 57.0 °F - 44.1 °F 62% 29.94 in 10.0 mi North 5.8 mph - N/A   Clear
1:52 AM 53.1 °F - 44.1 °F 71% 29.92 in 10.0 mi NE 4.6 mph - N/A   Clear
2:52 AM 52.0 °F - 43.0 °F 71% 29.91 in 10.0 mi NNE 5.8 mph - N/A   Clear
3:52 AM 46.9 °F - 42.1 °F 83% 29.96 in 10.0 mi South 4.6 mph - N/A   Clear
4:52 AM 46.0 °F 43.9 °F 42.1 °F 86% 29.97 in 10.0 mi WSW 4.6 mph - N/A   Clear
5:52 AM 43.0 °F - 39.9 °F 89% 29.97 in 10.0 mi Calm Calm - N/A   Clear
6:52 AM 51.1 °F - 43.0 °F 74% 29.96 in 10.0 mi Calm Calm - N/A   Clear
7:52 AM 57.0 °F - 44.1 °F 62% 29.97 in 10.0 mi Calm Calm - N/A   Clear
8:52 AM 64.0 °F - 44.1 °F 48% 29.96 in 10.0 mi Calm Calm - N/A   Clear
9:52 AM 68.0 °F - 43.0 °F 40% 29.93 in 10.0 mi Calm Calm - N/A   Clear
10:52 AM 73.9 °F - 42.1 °F 32% 29.91 in 10.0 mi North 5.8 mph - N/A   Clear
11:52 AM 75.9 °F - 37.9 °F 25% 29.88 in 10.0 mi Calm Calm - N/A   Clear
12:52 PM 75.9 °F - 36.0 °F 23% 29.89 in 10.0 mi SSE 5.8 mph - N/A   Clear
1:52 PM 81.0 °F - 34.0 °F 18% 29.88 in 10.0 mi North 10.4 mph - N/A   Clear
2:52 PM 82.0 °F - 28.9 °F 14% 29.85 in 10.0 mi Calm Calm - N/A   Clear
3:52 PM 82.0 °F - 30.0 °F 15% 29.84 in 10.0 mi Calm Calm - N/A   Clear
4:52 PM 82.9 °F - 33.1 °F 17% 29.82 in 10.0 mi SSW 10.4 mph 18.4 mph N/A   Clear
5:52 PM 80.1 °F - 32.0 °F 17% 29.83 in 10.0 mi SSW 9.2 mph - N/A   Clear
6:52 PM 79.0 °F - 39.0 °F 24% 29.83 in 10.0 mi South 13.8 mph 17.3 mph N/A   Mostly Cloudy
7:52 PM 71.1 °F - 41.0 °F 34% 29.86 in 10.0 mi ESE 11.5 mph - N/A   Partly Cloudy
8:52 PM 68.0 °F - 42.1 °F 39% 29.88 in 10.0 mi SE 17.3 mph 23.0 mph N/A   Mostly Cloudy
9:52 PM 66.0 °F - 44.1 °F 45% 29.90 in 10.0 mi East 12.7 mph 23.0 mph 0.00 in   Mostly Cloudy
10:52 PM 62.1 °F - 46.0 °F 56% 29.89 in 10.0 mi South 6.9 mph - N/A   Clear
11:52 PM 61.0 °F - 45.0 °F 56% 29.89 in 10.0 mi WNW 8.1 mph - N/A   Overcast